• In Germany
  • List of Countries
  • For 7 days
  • Water Temperature
  • Satellite Maps
  • Weather Map
  • Weather Widgets
  • user-avatar
    Login

    Hourly Weather Jewłach

    Today, 22 September, Friday

    Time Temperature Precipitation Wind Pressure Humidity
    00:00 +27°C° 0 mm 2 mps 760 mmHg 41%
    01:00 +26°C° 0.1 mm 1 mps 759 mmHg 42%
    02:00 +26°C° 0.1 mm 1 mps 759 mmHg 43%
    03:00 +24°C° 0 mm 0 mps 759 mmHg 47%
    04:00 +23°C° 0.1 mm 0 mps 759 mmHg 48%
    05:00 +25°C° 0.1 mm 1 mps 759 mmHg 49%
    06:00 +25°C° 0.1 mm 1 mps 759 mmHg 50%
    07:00 +27°C° 0 mm 1 mps 759 mmHg 45%
    08:00 +29°C° 0 mm 1 mps 758 mmHg 39%
    09:00 +31°C° 0 mm 1 mps 758 mmHg 34%
    10:00 +32°C° 0 mm 1 mps 758 mmHg 30%
    11:00 +34°C° 0 mm 2 mps 757 mmHg 27%
    12:00 +35°C° 0 mm 2 mps 757 mmHg 24%
    13:00 +36°C° 0 mm 2 mps 757 mmHg 23%
    14:00 +36°C° 0 mm 2 mps 756 mmHg 22%
    15:00 +37°C° 0 mm 2 mps 756 mmHg 21%
    16:00 +36°C° 0 mm 2 mps 756 mmHg 24%
    17:00 +34°C° 0 mm 2 mps 756 mmHg 26%
    18:00 +32°C° 0 mm 2 mps 757 mmHg 29%
    19:00 +31°C° 0 mm 2 mps 757 mmHg 32%
    20:00 +30°C° 0 mm 3 mps 758 mmHg 35%
    21:00 +29°C° 0 mm 3 mps 758 mmHg 39%
    22:00 +28°C° 0 mm 2 mps 758 mmHg 43%
    23:00 +27°C° 0 mm 2 mps 759 mmHg 46%

    Tomorrow, 23 September, Saturday

    Time Temperature Precipitation Wind Pressure Humidity
    00:00 +27°C° 0 mm 1 mps 759 mmHg 50%
    01:00 +26°C° 0 mm 1 mps 759 mmHg 52%
    02:00 +26°C° 0 mm 1 mps 759 mmHg 53%
    03:00 +23°C° 0 mm 0 mps 760 mmHg 54%
    04:00 +25°C° 0 mm 1 mps 760 mmHg 54%
    05:00 +25°C° 0 mm 1 mps 760 mmHg 54%
    06:00 +25°C° 0 mm 1 mps 760 mmHg 55%
    07:00 +27°C° 0 mm 1 mps 760 mmHg 50%
    08:00 +29°C° 0 mm 1 mps 760 mmHg 46%
    09:00 +30°C° 0 mm 1 mps 761 mmHg 41%
    10:00 +32°C° 0 mm 2 mps 760 mmHg 37%
    11:00 +34°C° 0 mm 3 mps 760 mmHg 32%
    12:00 +35°C° 0 mm 3 mps 760 mmHg 27%
    13:00 +36°C° 0 mm 4 mps 760 mmHg 25%
    14:00 +36°C° 0 mm 4 mps 760 mmHg 23%
    15:00 +37°C° 0 mm 5 mps 759 mmHg 22%
    16:00 +35°C° 0 mm 5 mps 760 mmHg 23%
    17:00 +34°C° 0 mm 4 mps 760 mmHg 24%
    18:00 +32°C° 0 mm 4 mps 760 mmHg 25%
    19:00 +30°C° 0 mm 4 mps 761 mmHg 27%
    20:00 +29°C° 0 mm 4 mps 761 mmHg 29%
    21:00 +28°C° 0 mm 4 mps 762 mmHg 30%
    22:00 +27°C° 0 mm 3 mps 762 mmHg 33%
    23:00 +27°C° 0 mm 3 mps 762 mmHg 36%

    Day after tomorrow, 24 September, Sunday

    Time Temperature Precipitation Wind Pressure Humidity
    00:00 +26°C° 0 mm 2 mps 762 mmHg 39%
    01:00 +25°C° 0 mm 2 mps 762 mmHg 40%
    02:00 +25°C° 0 mm 2 mps 762 mmHg 42%
    03:00 +24°C° 0 mm 1 mps 763 mmHg 44%
    04:00 +24°C° 0 mm 1 mps 763 mmHg 45%
    05:00 +23°C° 0 mm 1 mps 763 mmHg 45%
    06:00 +23°C° 0 mm 1 mps 763 mmHg 46%
    07:00 +25°C° 0 mm 1 mps 763 mmHg 43%
    08:00 +27°C° 0 mm 1 mps 764 mmHg 39%
    09:00 +29°C° 0 mm 2 mps 764 mmHg 35%
    10:00 +30°C° 0 mm 2 mps 763 mmHg 33%
    11:00 +31°C° 0 mm 2 mps 763 mmHg 31%
    12:00 +33°C° 0 mm 3 mps 763 mmHg 28%
    13:00 +34°C° 0 mm 3 mps 763 mmHg 27%
    14:00 +34°C° 0 mm 3 mps 762 mmHg 26%
    15:00 +35°C° 0 mm 4 mps 762 mmHg 26%
    16:00 +33°C° 0 mm 3 mps 762 mmHg 27%
    17:00 +31°C° 0 mm 3 mps 763 mmHg 29%
    18:00 +30°C° 0 mm 3 mps 763 mmHg 31%
    19:00 +29°C° 0 mm 3 mps 763 mmHg 35%
    20:00 +28°C° 0 mm 4 mps 764 mmHg 38%
    21:00 +27°C° 0 mm 4 mps 764 mmHg 42%
    22:00 +26°C° 0 mm 3 mps 764 mmHg 46%
    23:00 +25°C° 0 mm 3 mps 764 mmHg 50%

    25 September, Monday

    Time Temperature Precipitation Wind Pressure Humidity
    00:00 +25°C° 0 mm 2 mps 764 mmHg 54%
    01:00 +24°C° 0 mm 2 mps 764 mmHg 56%
    02:00 +24°C° 0 mm 1 mps 764 mmHg 59%
    03:00 +23°C° 0 mm 1 mps 764 mmHg 61%
    04:00 +23°C° 0 mm 1 mps 764 mmHg 62%
    05:00 +23°C° 0 mm 1 mps 764 mmHg 62%
    06:00 +20°C° 0 mm 0 mps 764 mmHg 63%
    07:00 +24°C° 0 mm 1 mps 764 mmHg 57%
    08:00 +26°C° 0 mm 1 mps 764 mmHg 51%
    09:00 +28°C° 0 mm 1 mps 764 mmHg 45%
    10:00 +29°C° 0 mm 2 mps 764 mmHg 41%
    11:00 +30°C° 0 mm 2 mps 764 mmHg 36%
    12:00 +31°C° 0 mm 2 mps 763 mmHg 31%
    13:00 +33°C° 0 mm 3 mps 763 mmHg 29%
    14:00 +33°C° 0 mm 3 mps 763 mmHg 28%
    15:00 +34°C° 0 mm 3 mps 763 mmHg 26%
    16:00 +33°C° 0 mm 3 mps 763 mmHg 29%
    17:00 +30°C° 0 mm 3 mps 763 mmHg 31%
    18:00 +29°C° 0 mm 2 mps 763 mmHg 34%
    19:00 +28°C° 0 mm 3 mps 764 mmHg 37%
    20:00 +27°C° 0 mm 3 mps 764 mmHg 41%
    21:00 +26°C° 0 mm 4 mps 764 mmHg 45%
    22:00 +26°C° 0 mm 3 mps 764 mmHg 48%
    23:00 +25°C° 0 mm 3 mps 764 mmHg 52%

    26 September, Tuesday

    Time Temperature Precipitation Wind Pressure Humidity
    00:00 +24°C° 0 mm 3 mps 764 mmHg 55%
    01:00 +24°C° 0 mm 3 mps 764 mmHg 56%
    02:00 +22°C° 0 mm 3 mps 764 mmHg 57%
    03:00 +22°C° 0 mm 3 mps 764 mmHg 58%
    04:00 +21°C° 0 mm 2 mps 764 mmHg 59%
    05:00 +21°C° 0 mm 2 mps 764 mmHg 59%
    06:00 +21°C° 0 mm 2 mps 764 mmHg 60%
    07:00 +22°C° 0 mm 3 mps 765 mmHg 55%
    08:00 +25°C° 0 mm 4 mps 765 mmHg 50%
    09:00 +26°C° 0 mm 5 mps 765 mmHg 46%
    10:00 +27°C° 0 mm 5 mps 764 mmHg 43%
    11:00 +28°C° 0 mm 5 mps 764 mmHg 41%
    12:00 +29°C° 0 mm 5 mps 764 mmHg 38%
    13:00 +29°C° 0 mm 5 mps 763 mmHg 38%
    14:00 +30°C° 0 mm 6 mps 763 mmHg 38%
    15:00 +30°C° 0 mm 6 mps 763 mmHg 38%
    16:00 +28°C° 0 mm 6 mps 763 mmHg 42%
    17:00 +27°C° 0 mm 7 mps 764 mmHg 46%
    18:00 +26°C° 0 mm 7 mps 764 mmHg 51%
    19:00 +24°C° 0 mm 7 mps 764 mmHg 54%
    20:00 +23°C° 0 mm 6 mps 764 mmHg 57%
    21:00 +22°C° 0 mm 6 mps 765 mmHg 60%
    22:00 +21°C° 0 mm 5 mps 764 mmHg 61%
    23:00 +21°C° 0 mm 5 mps 764 mmHg 62%

    27 September, Wednesday

    Time Temperature Precipitation Wind Pressure Humidity
    00:00 +21°C° 0 mm 4 mps 764 mmHg 62%
    01:00 +20°C° 0 mm 3 mps 764 mmHg 63%
    02:00 +20°C° 0 mm 3 mps 764 mmHg 63%
    03:00 +20°C° 0 mm 2 mps 764 mmHg 63%
    04:00 +20°C° 0 mm 2 mps 763 mmHg 64%
    05:00 +21°C° 0 mm 1 mps 763 mmHg 64%
    06:00 +20°C° 0 mm 1 mps 763 mmHg 65%
    07:00 +21°C° 0 mm 1 mps 763 mmHg 62%
    08:00 +23°C° 0 mm 2 mps 763 mmHg 59%
    09:00 +24°C° 0 mm 2 mps 763 mmHg 56%
    10:00 +25°C° 0 mm 2 mps 762 mmHg 52%
    11:00 +26°C° 0 mm 3 mps 762 mmHg 49%
    12:00 +27°C° 0 mm 3 mps 761 mmHg 45%
    13:00 +28°C° 0 mm 3 mps 761 mmHg 44%
    14:00 +29°C° 0 mm 3 mps 760 mmHg 42%
    15:00 +29°C° 0 mm 4 mps 760 mmHg 41%
    16:00 +28°C° 0 mm 4 mps 760 mmHg 45%
    17:00 +27°C° 0 mm 4 mps 761 mmHg 49%
    18:00 +26°C° 0 mm 4 mps 761 mmHg 53%
    19:00 +25°C° 0 mm 4 mps 761 mmHg 56%
    20:00 +25°C° 0 mm 4 mps 762 mmHg 60%
    21:00 +23°C° 0 mm 5 mps 762 mmHg 63%
    22:00 +22°C° 0 mm 4 mps 762 mmHg 63%
    23:00 +22°C° 0 mm 4 mps 762 mmHg 64%
    Show more